Tracking 22879 objects as of 21-Apr-2021
HD Live streaming from Space Station
objects crossing your sky now

COSMOS 84

Track COSMOS 84 now!
10-day predictions
COSMOS 84 is classified as:


NORAD ID: 1574
Int'l Code: 1965-070E
Perigee: 1,477.5 km
Apogee: 1,575.4 km
Inclination: 56.1 °
Period: 116.4 minutes
Semi major axis: 7897 km
RCS: 0.553 m2 (medium)
Launch date: September 3, 1965
Source: Commonwealth of Independent States (former USSR) (CIS)
Launch site: TYURATAM MISSILE AND SPACE COMPLEX (TTMTR)
aabbcc
Your satellite tracking list
Your tracking list is empty




NASA's NSSDC Master Catalog

Two Line Element Set (TLE):
1 01574U 65070E   21110.89430616 -.00000091  00000-0  22872-5 0  9994
2 01574  56.0559 347.2466 0061979 274.8534 187.7447 12.37007929513395
Source of the keplerian elements: AFSPC